Location: Newark
(48.9000°N, 0.7000°E)
Time: 20:43:06
(UTC+00:00)

ISS - Pass Details

Date: 04 October 2020
Orbit: 418 x 420 km, 51.6° (Epoch: 20 October)

Event Time Altitude Azimuth Distance (km) Brightness Sun altitude
Rises 18:18:11 0° 290° (WNW) 2,369 1.7 -8.9°
Reaches altitude 10° 18:20:18 10° 287° (WNW) 1,503 0.5 -9.3°
Maximum altitude 18:23:37 58° 207° (SSW) 495 -3.3 -9.8°
Enters shadow 18:26:45 11° 128° (SE) 1,428 -1.6 -10.3°
